Time,TemperatureF,DewpointF,PressureIn,WindDirection,WindDirectionDegrees,WindSpeedMPH,WindSpeedGustMPH,Humidity,HourlyPrecipIn,Conditions,Clouds,dailyrainin,SolarRadiationWatts/m^2,SoftwareType,DateUTC
2013-09-07 00:04:00,58.0,58.0,-100.00,SSE,153,1.0,2.0,100,0.00,,,0.00,0.000000,,2013-09-07 04:04:00,
2013-09-07 00:14:00,58.0,58.0,-100.00,SSE,153,1.0,2.0,100,0.00,,,0.00,0.000000,,2013-09-07 04:14:00,
2013-09-07 00:43:00,56.0,56.0,-100.00,SE,136,0.0,2.0,100,0.00,,,0.00,0.000000,,2013-09-07 04:43:00,
2013-09-07 00:54:00,56.0,56.0,-100.00,SE,136,0.0,2.0,100,0.00,,,0.00,0.000000,,2013-09-07 04:54:00,
2013-09-07 01:03:00,56.0,56.0,-100.00,SE,136,0.0,2.0,100,0.00,,,0.00,0.000000,,2013-09-07 05:03:00,
2013-09-07 01:13:00,56.0,56.0,-100.00,SE,136,0.0,2.0,100,0.00,,,0.00,0.000000,,2013-09-07 05:13:00,
2013-09-07 01:42:00,56.0,56.0,-100.00,SE,137,1.0,2.0,100,0.00,,,0.00,0.000000,,2013-09-07 05:42:00,
2013-09-07 01:52:00,56.0,56.0,-100.00,SE,137,1.0,2.0,100,0.00,,,0.00,0.000000,,2013-09-07 05:52:00,
2013-09-07 02:02:00,56.0,56.0,-100.00,SE,137,1.0,2.0,100,0.00,,,0.00,0.000000,,2013-09-07 06:02:00,
2013-09-07 02:13:00,56.0,56.0,-100.00,SE,137,1.0,2.0,100,0.00,,,0.00,0.000000,,2013-09-07 06:13:00,
2013-09-07 02:43:00,56.0,56.0,-100.00,SE,146,2.0,2.0,100,0.00,,,0.00,0.000000,,2013-09-07 06:43:00,
2013-09-07 02:52:00,56.0,56.0,-100.00,SE,146,2.0,2.0,100,0.00,,,0.00,0.000000,,2013-09-07 06:52:00,
2013-09-07 03:02:00,56.0,56.0,-100.00,SE,146,2.0,2.0,100,0.00,,,0.00,0.000000,,2013-09-07 07:02:00,
2013-09-07 03:12:00,56.0,56.0,-100.00,SE,146,2.0,2.0,100,0.00,,,0.00,0.000000,,2013-09-07 07:12:00,
2013-09-07 03:43:00,56.0,56.0,-100.00,WSW,256,2.0,3.0,100,0.00,,,0.00,0.000000,,2013-09-07 07:43:00,
2013-09-07 03:52:00,56.0,56.0,-100.00,WSW,256,2.0,3.0,100,0.00,,,0.00,0.000000,,2013-09-07 07:52:00,
2013-09-07 04:03:00,56.0,56.0,-100.00,WSW,256,2.0,3.0,100,0.00,,,0.00,0.000000,,2013-09-07 08:03:00,
2013-09-07 04:12:00,56.0,56.0,-100.00,WSW,256,2.0,3.0,100,0.00,,,0.00,0.000000,,2013-09-07 08:12:00,
2013-09-07 04:43:00,55.0,55.0,-100.00,West,264,2.0,4.0,100,0.00,,,0.00,0.000000,,2013-09-07 08:43:00,
2013-09-07 04:53:00,55.0,55.0,-100.00,West,264,2.0,4.0,100,0.00,,,0.00,0.000000,,2013-09-07 08:53:00,
2013-09-07 05:02:00,55.0,55.0,-100.00,West,264,2.0,4.0,100,0.00,,,0.00,0.000000,,2013-09-07 09:02:00,
2013-09-07 05:12:00,55.0,55.0,-100.00,West,264,2.0,4.0,100,0.00,,,0.00,0.000000,,2013-09-07 09:12:00,
2013-09-07 05:43:00,55.0,55.0,-100.00,West,264,2.0,4.0,100,0.00,,,0.00,0.000000,,2013-09-07 09:43:00,
2013-09-07 05:52:00,55.0,55.0,-100.00,West,264,2.0,4.0,100,0.00,,,0.00,0.000000,,2013-09-07 09:52:00,
2013-09-07 06:02:00,55.0,55.0,-100.00,West,264,2.0,4.0,100,0.00,,,0.00,0.000000,,2013-09-07 10:02:00,
2013-09-07 06:11:00,55.0,55.0,-100.00,West,264,2.0,4.0,100,0.00,,,0.00,0.000000,,2013-09-07 10:11:00,
2013-09-07 06:41:00,54.0,54.0,-100.00,WNW,291,2.0,4.0,100,0.00,,,0.00,0.000000,,2013-09-07 10:41:00,
2013-09-07 06:52:00,54.0,54.0,-100.00,WNW,291,2.0,4.0,100,0.00,,,0.00,0.000000,,2013-09-07 10:52:00,
2013-09-07 07:03:00,54.0,54.0,-100.00,WNW,291,2.0,4.0,100,0.00,,,0.00,0.000000,,2013-09-07 11:03:00,
2013-09-07 07:13:00,54.0,54.0,-100.00,WNW,291,2.0,4.0,100,0.00,,,0.00,0.000000,,2013-09-07 11:13:00,
2013-09-07 07:43:00,54.0,54.0,-100.00,WNW,297,1.0,5.0,100,0.00,,,0.00,0.000000,,2013-09-07 11:43:00,
2013-09-07 07:53:00,54.0,54.0,-100.00,WNW,297,1.0,5.0,100,0.00,,,0.00,0.000000,,2013-09-07 11:53:00,
2013-09-07 08:02:00,54.0,54.0,-100.00,WNW,297,1.0,5.0,100,0.00,,,0.00,0.000000,,2013-09-07 12:02:00,
2013-09-07 08:12:00,54.0,54.0,-100.00,WNW,297,1.0,5.0,100,0.00,,,0.00,0.000000,,2013-09-07 12:12:00,
2013-09-07 08:42:00,54.0,54.0,-100.00,West,276,1.0,3.0,100,0.00,,,0.00,22.000000,,2013-09-07 12:42:00,
2013-09-07 08:52:00,54.0,54.0,-100.00,West,276,1.0,3.0,100,0.00,,,0.00,22.000000,,2013-09-07 12:52:00,
2013-09-07 09:02:00,54.0,54.0,-100.00,West,276,1.0,3.0,100,0.00,,,0.00,22.000000,,2013-09-07 13:02:00,
2013-09-07 09:12:00,54.0,54.0,-100.00,West,276,1.0,3.0,100,0.00,,,0.00,22.000000,,2013-09-07 13:12:00,
2013-09-07 09:42:00,56.0,56.0,-100.00,SSW,196,1.0,2.0,100,0.00,,,0.00,85.000000,,2013-09-07 13:42:00,
2013-09-07 09:52:00,56.0,56.0,-100.00,SSW,196,1.0,2.0,100,0.00,,,0.00,85.000000,,2013-09-07 13:52:00,
2013-09-07 10:02:00,56.0,56.0,-100.00,SSW,196,1.0,2.0,100,0.00,,,0.00,85.000000,,2013-09-07 14:02:00,
2013-09-07 10:11:00,56.0,56.0,-100.00,SSW,196,1.0,2.0,100,0.00,,,0.00,85.000000,,2013-09-07 14:11:00,
2013-09-07 10:43:00,61.0,61.0,-100.00,SE,141,3.0,4.0,100,0.00,,,0.00,137.000000,,2013-09-07 14:43:00,
2013-09-07 10:52:00,61.0,61.0,-100.00,SE,141,3.0,4.0,100,0.00,,,0.00,137.000000,,2013-09-07 14:52:00,
2013-09-07 11:02:00,61.0,61.0,-100.00,SE,141,3.0,4.0,100,0.00,,,0.00,137.000000,,2013-09-07 15:02:00,
2013-09-07 11:11:00,61.0,61.0,-100.00,SE,141,3.0,4.0,100,0.00,,,0.00,137.000000,,2013-09-07 15:11:00,
2013-09-07 11:44:00,70.0,68.0,-100.00,SE,144,4.0,5.0,92,0.00,,,0.00,553.000000,,2013-09-07 15:44:00,
2013-09-07 11:54:00,70.0,68.0,-100.00,SE,144,4.0,5.0,92,0.00,,,0.00,553.000000,,2013-09-07 15:54:00,
2013-09-07 12:04:00,70.0,68.0,-100.00,SE,144,4.0,5.0,92,0.00,,,0.00,553.000000,,2013-09-07 16:04:00,
2013-09-07 12:13:00,70.0,68.0,-100.00,SE,144,4.0,5.0,92,0.00,,,0.00,553.000000,,2013-09-07 16:13:00,
2013-09-07 12:43:00,77.0,66.0,-100.00,SSW,195,3.0,5.0,70,0.00,,,0.00,676.000000,,2013-09-07 16:43:00,
2013-09-07 12:53:00,77.0,66.0,-100.00,SSW,195,3.0,5.0,70,0.00,,,0.00,676.000000,,2013-09-07 16:53:00,
2013-09-07 13:04:00,77.0,66.0,-100.00,SSW,195,3.0,5.0,70,0.00,,,0.00,676.000000,,2013-09-07 17:04:00,
2013-09-07 13:12:00,77.0,66.0,-100.00,SSW,195,3.0,5.0,70,0.00,,,0.00,676.000000,,2013-09-07 17:12:00,
2013-09-07 13:43:00,80.0,58.0,-100.00,SSW,199,3.0,9.0,47,0.00,,,0.00,734.000000,,2013-09-07 17:43:00,
2013-09-07 13:52:00,80.0,58.0,-100.00,SSW,199,3.0,9.0,47,0.00,,,0.00,734.000000,,2013-09-07 17:52:00,
2013-09-07 14:01:00,80.0,58.0,-100.00,SSW,199,3.0,9.0,47,0.00,,,0.00,734.000000,,2013-09-07 18:01:00,
2013-09-07 14:13:00,80.0,58.0,-100.00,SSW,199,3.0,9.0,47,0.00,,,0.00,734.000000,,2013-09-07 18:13:00,
2013-09-07 14:43:00,81.0,56.0,-100.00,WSW,252,4.0,9.0,42,0.00,,,0.00,744.000000,,2013-09-07 18:43:00,
2013-09-07 14:52:00,81.0,56.0,-100.00,WSW,252,4.0,9.0,42,0.00,,,0.00,744.000000,,2013-09-07 18:52:00,
2013-09-07 15:02:00,81.0,56.0,-100.00,WSW,252,4.0,9.0,42,0.00,,,0.00,744.000000,,2013-09-07 19:02:00,
2013-09-07 15:11:00,81.0,56.0,-100.00,WSW,252,4.0,9.0,42,0.00,,,0.00,744.000000,,2013-09-07 19:11:00,
2013-09-07 15:42:00,81.0,59.0,-100.00,SW,224,5.0,11.0,47,0.00,,,0.00,694.000000,,2013-09-07 19:42:00,
2013-09-07 15:53:00,81.0,59.0,-100.00,SW,224,5.0,11.0,47,0.00,,,0.00,694.000000,,2013-09-07 19:53:00,
2013-09-07 16:02:00,81.0,59.0,-100.00,SW,224,5.0,11.0,47,0.00,,,0.00,694.000000,,2013-09-07 20:02:00,
2013-09-07 16:12:00,81.0,59.0,-100.00,SW,224,5.0,11.0,47,0.00,,,0.00,694.000000,,2013-09-07 20:12:00,
2013-09-07 16:42:00,79.0,58.0,-100.00,SSW,195,3.0,10.0,48,0.00,,,0.00,595.000000,,2013-09-07 20:42:00,
2013-09-07 16:53:00,79.0,58.0,-100.00,SSW,195,3.0,10.0,48,0.00,,,0.00,595.000000,,2013-09-07 20:53:00,
2013-09-07 17:02:00,79.0,58.0,-100.00,SSW,195,3.0,10.0,48,0.00,,,0.00,595.000000,,2013-09-07 21:02:00,
2013-09-07 17:12:00,79.0,58.0,-100.00,SSW,195,3.0,10.0,48,0.00,,,0.00,595.000000,,2013-09-07 21:12:00,
2013-09-07 17:44:00,76.0,62.0,-100.00,South,188,3.0,7.0,62,0.00,,,0.00,457.000000,,2013-09-07 21:44:00,
2013-09-07 17:54:00,76.0,62.0,-100.00,South,188,3.0,7.0,62,0.00,,,0.00,457.000000,,2013-09-07 21:54:00,
2013-09-07 18:04:00,76.0,62.0,-100.00,South,188,3.0,7.0,62,0.00,,,0.00,457.000000,,2013-09-07 22:04:00,
2013-09-07 18:13:00,76.0,62.0,-100.00,South,188,3.0,7.0,62,0.00,,,0.00,457.000000,,2013-09-07 22:13:00,
2013-09-07 21:11:00,65.0,64.0,-100.00,SSW,204,1.0,4.0,95,0.00,,,0.00,3.000000,,2013-09-08 01:11:00,
2013-09-07 21:42:00,63.0,63.0,-100.00,South,170,2.0,3.0,99,0.00,,,0.00,0.000000,,2013-09-08 01:42:00,
2013-09-07 21:52:00,63.0,63.0,-100.00,South,170,2.0,3.0,99,0.00,,,0.00,0.000000,,2013-09-08 01:52:00,
2013-09-07 22:02:00,63.0,63.0,-100.00,South,170,2.0,3.0,99,0.00,,,0.00,0.000000,,2013-09-08 02:02:00,
2013-09-07 22:12:00,63.0,63.0,-100.00,South,170,2.0,3.0,99,0.00,,,0.00,0.000000,,2013-09-08 02:12:00,
2013-09-07 22:43:00,61.0,61.0,-100.00,South,178,1.0,3.0,100,0.00,,,0.00,0.000000,,2013-09-08 02:43:00,
2013-09-07 22:52:00,61.0,61.0,-100.00,South,178,1.0,3.0,100,0.00,,,0.00,0.000000,,2013-09-08 02:52:00,
2013-09-07 23:03:00,61.0,61.0,-100.00,South,178,1.0,3.0,100,0.00,,,0.00,0.000000,,2013-09-08 03:03:00,
2013-09-07 23:12:00,61.0,61.0,-100.00,South,178,1.0,3.0,100,0.00,,,0.00,0.000000,,2013-09-08 03:12:00,
2013-09-07 23:44:00,60.0,60.0,-100.00,SE,144,2.0,2.0,100,0.00,,,0.00,0.000000,,2013-09-08 03:44:00,
2013-09-07 23:54:00,60.0,60.0,-100.00,SE,144,2.0,2.0,100,0.00,,,0.00,0.000000,,2013-09-08 03:54:00,